Location: Burbank
(38.7788°N, 114.0429°W)
Time: 10:58:18
(UTC+00:00)

Vanguard 2 - Pass Details

Date: 18 May 2026
Orbit: 553 x 2894 km, 32.9° (Epoch: 11 June)

Event Time Altitude Azimuth Distance (km) Brightness Sun altitude
Rises 08:37:21 0° 239° (WSW) 6,037 - -29.7°
Reaches altitude 10° 08:41:03 10° 236° (SW) 5,248 - -29.5°
Exits shadow 08:49:34 39° 221° (SW) 3,724 10.4 -28.9°
Maximum altitude 08:57:12 61° 162° (SSE) 3,158 10.2 -28.4°
Drops below altitude 10° 09:13:32 10° 87° (E) 5,311 12.1 -27.0°
Sets 09:17:18 0° 85° (E) 6,112 12.6 -26.7°
